Date,TemperatureHighF,TemperatureAvgF,TemperatureLowF,DewpointHighF,DewpointAvgF,DewpointLowF,HumidityHigh,HumidityAvg,HumidityLow,PressureMaxIn,PressureMinIn,WindSpeedMaxMPH,WindSpeedAvgMPH,GustSpeedMaxMPH,PrecipitationSumIn
2013-1-1,31.6,24.7,7.2,28.3,16.9,2.6,95,73,50,29.98,29.73,4,1,7,0.00
2013-1-2,25.6,11.0,-2.2,15.8,3.7,-6.9,87,73,53,30.21,29.94,4,1,8,0.00
2013-1-3,16.9,3.7,-9.3,7.1,-4.0,-14.8,83,71,39,30.23,30.04,2,0,3,0.00
2013-1-4,37.5,23.3,4.7,26.1,16.3,0.7,92,75,52,30.03,29.84,4,1,7,0.02
2013-1-5,36.5,29.2,17.2,26.7,20.7,14.1,89,72,45,30.28,29.88,4,1,9,0.01
2013-1-6,35.9,26.4,17.5,29.4,22.9,14.6,95,86,72,30.23,29.96,3,0,9,0.02
2013-1-7,31.3,23.6,10.0,24.1,17.7,7.2,95,80,49,30.42,30.00,4,1,11,0.00
2013-1-8,38.6,20.5,6.1,28.8,16.1,2.6,94,83,61,30.42,30.30,3,0,7,0.00
2013-1-9,21.0,19.3,17.2,19.1,17.5,15.3,93,93,92,30.42,30.40,0,0,0,0.00
2013-1-13,38.3,36.3,34.3,38.0,36.0,34.0,99,99,99,30.11,30.01,1,0,3,0.24
2013-1-14,46.4,37.5,31.8,44.1,35.4,27.5,100,93,63,30.31,29.88,4,0,8,0.04
2013-1-15,31.8,31.3,30.4,29.7,28.6,27.5,92,90,88,30.32,30.26,1,0,1,0.00
2013-1-19,39.1,31.2,25.8,29.5,26.5,23.5,92,83,60,30.02,29.86,3,0,6,0.08
2013-1-20,41.6,30.9,23.0,31.7,21.3,10.4,97,70,35,29.98,29.57,5,2,12,0.13
2013-1-21,25.1,20.0,12.1,17.1,9.3,1.1,90,64,44,30.09,29.81,4,1,7,0.00
2013-1-22,19.2,13.6,4.1,15.8,5.7,-2.9,92,72,39,30.10,29.79,3,1,9,0.00
2013-1-23,10.7,4.9,-4.1,-2.0,-9.2,-15.6,77,53,29,30.18,30.09,5,1,9,0.00
2013-1-24,15.4,3.4,-10.5,-3.5,-11.0,-16.5,78,54,29,30.31,30.16,4,1,14,0.00
2013-1-25,18.9,8.6,-5.0,8.7,-5.2,-11.7,82,56,26,30.39,30.10,4,0,6,0.00
2013-1-26,19.1,9.8,0.5,8.6,-0.8,-10.2,86,65,27,30.31,30.07,7,1,13,0.00
2013-1-27,25.6,9.6,-4.6,8.5,-1.3,-9.5,85,64,30,30.53,30.31,5,1,12,0.00
2013-1-28,23.0,15.9,4.1,21.0,11.7,0.2,92,83,62,30.52,30.05,2,0,2,0.00
2013-1-29,34.0,27.6,22.4,30.3,25.2,20.2,97,91,82,30.22,30.06,1,0,2,0.07
2013-1-30,44.3,35.4,31.0,44.3,35.2,30.2,100,99,97,30.15,29.40,3,0,7,0.48
2013-1-31,55.3,39.6,27.0,55.3,31.9,12.4,100,76,47,29.60,28.92,7,3,29,0.77
2013-2-1,27.9,24.2,18.8,14.6,8.1,2.4,62,50,40,30.11,29.60,5,2,12,0.00
2013-2-2,27.5,20.3,9.5,14.7,6.3,0.7,79,55,42,30.25,30.05,4,1,10,0.00
2013-2-3,28.7,21.5,12.3,15.1,12.9,9.2,89,71,49,30.07,29.77,2,0,6,0.00
2013-2-4,26.1,19.6,12.4,13.8,8.1,2.1,89,63,39,29.95,29.76,4,1,10,0.00
2013-2-5,27.2,19.6,11.4,18.3,9.2,4.0,79,65,44,30.05,29.94,3,0,5,0.00
2013-2-6,34.4,26.0,17.2,23.8,16.5,5.5,91,69,42,30.33,29.94,4,1,8,0.01
2013-2-7,26.6,19.1,7.2,9.4,2.9,-1.9,83,52,30,30.57,30.33,5,1,8,0.00
2013-2-8,23.9,21.6,17.5,18.3,13.3,0.1,89,72,35,30.48,29.80,9,3,15,0.00
2013-2-9,20.0,16.0,7.9,16.6,9.6,1.4,91,76,58,30.31,29.79,9,4,17,0.00
2013-2-10,30.7,10.9,-7.2,21.6,2.7,-12.6,88,72,27,30.51,30.31,5,1,5,0.00
2013-2-11,32.2,23.0,7.7,31.7,21.0,4.1,99,92,80,30.39,29.68,1,0,2,0.07
2013-2-12,35.6,32.9,30.6,33.4,30.2,24.1,99,90,70,29.91,29.66,3,1,7,0.22
2013-2-13,38.0,31.9,26.3,27.5,23.9,20.8,87,73,50,29.89,29.75,3,0,5,0.17
2013-2-14,26.6,26.1,24.8,23.3,22.9,21.9,89,87,86,29.80,29.74,0,0,0,0.00
2013-2-21,25.1,23.0,19.9,16.8,14.6,11.9,82,70,57,30.31,30.08,5,2,11,0.00
2013-2-22,38.9,27.2,12.9,25.7,18.2,10.3,92,71,41,30.44,30.32,3,1,6,0.00
2013-2-23,35.2,32.2,29.7,31.9,28.1,22.8,99,85,70,30.33,29.94,3,0,7,0.03
2013-2-24,37.2,33.1,31.8,35.1,32.3,31.1,99,97,90,29.94,29.76,3,0,6,0.22
2013-2-25,36.2,31.6,26.0,34.7,30.8,25.0,99,97,93,30.27,29.94,1,0,1,0.14
2013-2-26,39.5,33.5,30.0,35.0,30.2,26.7,99,88,68,30.36,30.17,2,0,6,0.00
2013-2-27,35.2,34.6,32.9,30.6,28.3,27.4,91,78,73,30.18,30.10,4,2,4,0.00
2013-2-28,40.8,34.6,29.5,35.5,32.4,29.0,99,92,79,29.65,29.56,3,-909,3,0.10
2013-3-1,40.3,33.9,28.1,33.3,28.3,24.5,100,81,60,29.73,29.58,5,-668,10,0.00
2013-3-2,37.8,33.7,30.0,28.0,25.4,22.7,81,72,62,29.73,29.67,0,-999,0,0.00
2013-3-3,35.6,30.6,26.4,26.9,24.0,20.6,86,76,66,29.70,29.63,6,-785,8,0.04
2013-3-4,36.3,30.8,25.4,24.9,20.7,17.3,76,66,54,29.84,29.66,5,-654,14,0.00
2013-3-5,42.3,33.1,25.1,28.9,24.4,20.3,87,71,52,30.10,29.84,11,-714,11,0.00
2013-3-6,37.3,34.0,29.4,32.5,29.1,25.5,93,82,69,30.17,30.07,14,-471,20,0.03
2013-3-7,35.8,32.4,31.0,31.6,27.7,23.9,96,83,65,30.15,30.07,8,3,14,0.05
2013-3-8,37.9,31.6,26.6,32.1,28.1,25.6,97,87,65,30.25,30.03,6,2,11,0.13
2013-3-9,52.3,32.9,19.5,29.2,21.6,13.1,97,70,21,30.37,30.23,5,1,9,0.10
2013-3-10,48.2,32.9,17.5,30.4,24.7,15.6,95,74,44,30.43,30.27,3,1,6,0.02
2013-3-11,46.1,38.7,32.7,38.0,32.7,29.6,90,79,61,30.32,30.12,5,1,6,0.00
2013-3-12,48.3,43.3,38.8,48.3,42.5,36.9,100,97,85,30.12,29.69,4,1,9,0.71
2013-3-13,44.6,36.1,26.4,38.8,29.1,19.3,100,79,39,29.83,29.75,4,1,7,0.00
2013-3-14,30.3,25.0,19.4,25.8,12.7,4.2,92,61,43,29.89,29.76,5,1,9,0.00
2013-3-15,37.6,26.8,14.0,29.5,14.9,2.0,93,64,26,29.91,29.65,4,2,10,0.00
2013-3-16,30.0,27.9,25.3,26.9,25.4,23.3,92,90,86,29.77,29.74,2,0,5,0.00
2013-3-24,41.5,35.6,25.8,26.2,23.1,21.8,85,62,47,29.83,29.77,6,2,13,0.08
2013-3-25,42.6,32.9,21.4,29.4,24.4,19.4,94,73,51,29.81,29.55,6,2,11,0.00
2013-3-26,44.9,34.9,25.0,31.3,25.5,19.5,92,71,37,29.84,29.60,5,1,11,0.00
2013-3-27,49.5,33.4,18.6,29.9,23.5,16.7,94,72,33,29.93,29.80,7,1,14,0.00
2013-3-28,48.8,37.9,30.6,34.8,30.7,27.5,98,77,45,30.07,29.93,4,1,10,0.01
2013-3-29,53.6,38.8,27.6,34.2,29.9,26.3,96,74,38,30.10,30.01,5,1,7,0.00
2013-3-30,52.3,37.6,26.3,31.2,23.2,14.7,96,64,24,30.14,30.03,5,1,10,0.00
2013-3-31,54.5,37.5,20.5,38.9,26.0,18.3,98,69,29,30.15,29.77,6,1,13,0.15
2013-4-1,55.7,40.1,30.4,44.0,32.8,12.0,100,78,39,29.83,29.54,4,1,8,0.27
2013-4-2,37.0,30.4,23.0,18.2,13.5,8.9,76,50,33,29.97,29.83,6,2,13,0.00
2013-4-3,42.6,33.5,26.0,17.8,11.9,3.9,60,43,20,30.21,29.95,5,2,14,0.00
2013-4-4,52.5,37.3,22.1,26.6,17.9,10.0,80,50,20,30.34,30.02,4,1,10,0.00
2013-4-5,56.7,41.7,29.5,29.4,24.8,19.3,86,56,24,30.03,29.70,5,2,12,0.00
2013-4-6,42.5,33.3,25.0,23.1,11.6,1.3,75,44,19,30.35,29.94,8,2,17,0.00
2013-4-7,55.7,38.4,21.3,39.3,25.0,14.5,86,62,26,30.34,29.97,8,2,13,0.01
2013-4-8,61.2,45.3,31.3,40.1,34.3,29.1,99,71,30,30.10,29.99,6,1,13,0.00
2013-4-9,65.0,50.4,40.1,50.0,42.5,36.7,100,77,47,30.05,29.90,4,1,8,0.03
2013-4-10,57.2,50.6,45.2,51.2,48.0,41.7,100,91,72,30.01,29.87,4,0,8,1.07
2013-4-11,47.4,42.2,35.6,46.9,37.4,26.3,100,85,49,30.17,29.88,5,1,8,0.13
2013-4-12,35.6,33.7,32.4,35.3,32.4,28.8,99,95,82,30.18,29.87,5,1,8,0.23
2013-4-13,52.3,39.9,32.2,40.2,35.7,31.7,100,87,47,29.97,29.83,3,0,6,0.42
2013-4-14,50.2,39.5,28.5,38.8,31.2,26.2,100,75,42,30.26,29.95,4,1,12,0.01
2013-4-15,58.7,41.2,24.2,41.3,31.2,22.7,97,72,35,30.41,30.26,3,1,8,0.00
2013-4-16,65.2,48.4,31.5,52.4,42.2,29.7,96,81,48,30.39,30.05,7,2,17,0.04
2013-4-17,61.5,50.8,34.9,51.9,35.6,24.9,99,62,25,30.37,30.08,8,2,15,0.02
2013-4-18,63.4,47.3,27.9,44.6,32.6,26.7,97,62,34,30.45,30.13,6,2,10,0.00
2013-4-19,70.1,60.5,49.4,61.8,55.2,44.7,99,84,67,30.14,29.59,6,2,13,0.15
2013-4-20,58.7,47.0,36.8,54.7,36.8,20.3,99,71,39,30.28,29.63,4,1,8,0.52
2013-4-21,50.8,38.4,27.5,28.8,20.3,13.8,82,52,23,30.70,30.28,6,2,13,0.00
2013-4-22,56.5,40.1,23.8,30.2,24.3,16.5,93,59,26,30.77,30.60,6,2,9,0.00
2013-4-23,40.9,37.0,29.3,36.9,32.5,26.6,92,84,76,30.62,30.18,6,2,10,0.00
2013-4-24,75.3,55.1,39.8,48.5,42.5,36.7,94,67,27,30.18,29.75,4,1,8,0.00
2013-4-25,58.4,49.7,32.4,49.1,33.7,23.1,94,58,26,30.32,29.78,6,2,10,0.01
2013-4-26,63.7,45.7,26.7,39.6,30.5,25.2,95,62,27,30.45,30.32,5,1,11,0.00
2013-4-27,66.9,49.2,29.5,44.1,34.3,24.4,99,63,20,30.46,30.27,5,1,7,0.00
2013-4-28,72.5,53.0,31.0,46.0,35.7,29.5,98,58,24,30.36,30.15,3,1,8,0.00
2013-4-29,69.4,54.0,40.1,46.1,39.1,34.3,82,59,30,30.28,30.17,5,1,12,0.00
2013-4-30,74.2,57.4,43.8,44.2,36.5,29.3,80,50,20,30.34,30.24,3,1,6,0.00
2013-5-1,77.6,55.2,32.1,42.2,32.2,24.5,93,51,15,30.48,30.35,4,1,8,0.00
2013-5-2,83.6,57.9,35.8,50.3,37.4,23.7,97,54,19,30.49,30.28,5,1,9,0.00
2013-5-3,70.1,52.4,33.2,46.7,38.2,30.9,94,62,32,30.55,30.36,5,1,9,0.00
2013-5-4,73.9,54.0,34.9,46.5,36.9,28.9,100,60,22,30.39,30.22,7,1,10,0.00
2013-5-5,74.9,51.6,29.7,41.6,32.9,25.4,96,57,17,30.35,30.18,4,1,8,0.00
2013-5-6,76.0,53.2,30.7,43.7,35.9,19.5,98,61,12,30.30,30.10,3,1,5,0.00
2013-5-7,83.4,60.2,36.6,52.8,43.4,29.3,99,63,16,30.20,30.03,4,1,9,0.00
2013-5-8,75.8,60.1,46.0,62.7,55.5,45.4,100,87,51,30.20,30.03,5,1,8,0.20
2013-5-9,67.3,59.8,54.1,62.3,58.2,54.1,100,95,67,30.03,29.87,2,0,6,0.40
2013-5-10,78.1,62.3,52.5,63.0,56.9,51.6,100,85,40,29.99,29.87,3,0,6,0.01
2013-5-11,65.2,59.8,55.6,65.2,59.7,55.3,100,100,98,29.87,29.68,2,0,8,0.76
2013-5-12,66.0,55.0,39.9,58.3,47.8,28.5,100,79,39,29.84,29.60,3,0,10,0.01
2013-5-13,53.6,44.1,35.9,35.5,31.5,26.2,89,63,35,30.08,29.84,4,1,7,0.00
2013-5-14,54.8,44.1,32.4,40.0,32.9,26.8,97,69,35,30.10,30.02,5,1,8,0.00
2013-5-15,60.5,45.6,29.0,51.9,43.9,27.5,100,94,47,30.10,29.69,2,0,4,0.14
2013-5-16,77.9,59.3,38.6,56.5,42.0,31.6,100,63,24,29.84,29.65,4,1,13,0.00
2013-5-17,68.1,54.4,41.2,45.7,40.0,32.9,94,63,30,30.24,29.84,7,2,11,0.00
2013-5-18,73.7,55.1,33.8,51.2,40.9,32.8,100,66,26,30.34,30.20,4,0,10,0.00
2013-5-19,69.8,55.1,41.2,56.1,50.3,40.1,100,86,58,30.35,30.20,4,0,7,0.13
2013-5-20,77.2,63.8,54.1,65.5,59.6,54.1,100,88,61,30.20,29.93,2,0,5,0.02
2013-5-21,87.8,67.3,51.7,68.5,59.9,50.1,100,80,43,30.08,29.79,6,1,12,0.55
2013-5-22,75.1,61.5,51.3,69.2,59.9,50.6,100,95,74,29.96,29.83,2,0,4,1.51
2013-5-23,75.1,65.1,59.3,70.8,64.3,58.5,100,97,82,29.88,29.75,2,0,6,0.71
2013-5-24,66.3,57.2,45.1,66.1,55.1,42.2,100,93,78,29.90,29.63,5,1,13,0.20
2013-5-25,46.2,43.2,38.3,44.4,41.5,36.2,99,94,86,29.90,29.81,6,2,14,0.54
2013-5-26,53.8,44.8,36.9,43.8,39.3,35.7,100,83,56,30.14,29.80,5,1,9,0.04
2013-5-27,69.8,51.1,34.1,51.4,38.7,32.0,100,70,27,30.20,30.09,3,1,9,0.00
2013-5-28,74.7,56.2,35.6,55.4,44.5,34.6,100,70,27,30.28,30.13,2,0,4,0.00
2013-5-29,65.8,60.0,56.2,64.4,59.2,51.9,100,97,84,30.17,29.98,1,0,3,0.55
2013-5-30,85.5,70.3,59.8,72.1,65.2,59.8,100,86,47,30.10,30.00,3,0,6,0.00
2013-5-31,92.3,73.0,58.6,72.1,65.6,58.6,100,81,43,30.11,29.90,3,0,7,0.00
2013-6-1,92.1,74.5,59.8,71.8,66.3,59.8,100,79,42,29.96,29.81,2,0,5,0.00
2013-6-2,90.3,74.5,64.0,73.3,68.2,63.9,100,83,50,29.84,29.63,4,1,10,1.21
2013-6-3,76.7,65.3,48.0,67.9,60.0,43.9,100,85,55,29.86,29.76,2,0,5,0.12
2013-6-4,69.8,58.0,42.2,53.7,46.4,41.1,96,69,41,30.12,29.87,4,1,7,0.00
2013-6-5,74.6,58.5,43.2,56.7,48.6,42.2,100,73,36,30.22,30.07,2,0,6,0.00
2013-6-6,73.2,60.2,47.3,57.1,51.7,46.2,100,76,43,30.21,30.07,3,0,7,0.08
2013-6-7,54.5,52.6,50.8,53.8,52.2,49.6,100,99,92,30.11,29.86,4,1,7,1.65
2013-6-8,73.7,60.4,50.7,64.3,57.2,50.2,100,90,65,30.03,29.71,3,1,7,0.42
2013-6-9,76.3,63.0,49.9,61.9,56.3,49.9,100,81,49,30.18,30.02,2,0,7,0.00
2013-6-10,72.0,59.3,48.9,63.3,56.9,48.6,100,93,62,30.22,29.99,2,0,4,0.79
2013-6-11,60.7,57.6,55.1,58.2,56.8,55.1,100,97,86,29.99,29.59,3,0,6,1.00
2013-6-12,66.9,58.9,50.1,56.7,53.5,49.3,100,84,56,29.85,29.58,8,1,24,0.01
2013-6-13,58.1,52.4,46.8,58.1,52.1,46.7,100,99,91,29.85,29.72,1,0,3,0.80
2013-6-14,73.7,59.3,49.9,61.6,54.0,47.0,100,86,41,29.83,29.70,4,0,8,0.39
2013-6-15,76.5,60.8,45.5,58.1,49.5,39.8,100,72,28,29.97,29.83,3,0,8,0.00
2013-6-16,74.7,61.8,48.0,63.5,58.0,46.9,99,88,53,29.96,29.70,2,0,5,0.01
2013-6-17,82.4,63.8,51.1,65.7,58.9,51.1,100,87,46,29.90,29.77,6,0,12,0.21
2013-6-18,65.8,60.1,53.6,63.3,58.9,53.2,100,96,83,29.95,29.89,3,0,5,0.06
2013-6-19,72.8,59.2,45.8,55.7,48.7,36.9,100,73,30,30.18,29.94,4,1,8,0.00
2013-6-20,78.3,60.0,41.2,57.7,49.3,40.4,100,72,36,30.30,30.18,3,0,7,0.00
2013-6-21,84.1,64.7,47.1,63.9,54.1,45.7,100,74,29,30.27,30.17,4,0,6,0.00
2013-6-22,81.4,66.6,51.3,69.0,60.5,50.6,100,82,58,30.23,30.07,2,0,8,0.00
2013-6-23,90.1,73.6,61.0,73.6,66.5,59.2,95,80,55,30.14,29.93,3,0,9,0.00
2013-6-24,91.8,75.3,66.8,75.3,68.6,63.6,100,82,48,29.99,29.86,3,0,7,0.05
2013-6-25,89.0,73.6,64.5,74.9,68.9,64.5,100,87,51,29.95,29.71,2,0,6,0.11
2013-6-26,76.8,69.6,63.7,73.1,68.2,63.7,100,96,77,29.83,29.72,3,0,4,0.37
2013-6-27,78.8,69.8,63.7,72.2,67.3,63.7,100,92,70,29.83,29.70,3,0,6,0.00
2013-6-28,75.4,66.9,60.2,73.5,66.2,59.8,100,97,88,29.70,29.43,3,1,7,1.45
2013-6-29,79.8,71.4,64.7,72.9,68.7,64.7,100,92,70,29.67,29.48,3,1,9,0.33
2013-6-30,84.1,71.5,66.6,75.8,69.3,66.6,100,94,66,29.91,29.67,3,0,6,0.53
2013-7-1,76.0,70.8,67.1,74.8,70.6,67.1,100,99,92,30.04,29.91,1,0,2,0.19
2013-7-2,81.6,73.1,67.6,76.3,71.6,67.6,100,95,77,30.14,30.03,4,0,8,0.93
2013-7-3,82.6,73.6,67.4,76.6,71.8,67.4,100,94,75,30.17,30.09,2,0,6,0.00
2013-7-4,91.0,78.1,69.6,76.9,73.1,69.6,100,86,56,30.19,30.03,3,0,7,0.00
2013-7-5,91.4,78.9,68.9,77.8,73.7,68.9,100,86,60,30.14,29.98,2,0,8,0.00
2013-7-6,87.6,75.2,64.8,74.5,69.9,63.6,100,85,58,30.07,29.96,1,0,4,0.00
2013-7-7,88.0,73.0,61.8,77.5,69.2,61.8,100,89,59,30.03,29.89,2,0,4,0.01
2013-7-8,87.0,76.1,68.4,74.0,70.6,66.9,100,85,56,30.02,29.90,2,0,5,0.18
2013-7-9,81.8,71.5,66.4,74.7,69.5,66.1,100,94,70,30.08,30.00,5,0,6,0.03
2013-7-10,84.1,72.9,68.1,76.2,71.2,66.8,100,95,71,30.03,29.76,3,0,7,0.01
2013-7-11,79.6,73.3,63.1,74.5,71.4,62.5,100,94,73,29.95,29.74,2,0,4,0.00
2013-7-12,81.2,68.8,59.0,68.3,61.9,58.9,100,81,50,30.19,29.95,6,1,9,0.00
2013-7-13,74.9,67.6,60.1,70.3,65.0,58.7,100,92,66,30.29,30.19,1,0,4,0.00
2013-7-14,88.0,75.2,64.3,76.5,70.8,64.3,100,88,57,30.31,30.18,2,0,5,0.00
2013-7-15,91.0,76.9,67.4,75.1,70.1,64.5,100,82,47,30.21,30.08,3,0,8,0.00
2013-7-16,90.5,76.3,64.5,73.3,68.2,64.5,100,80,46,30.18,30.10,5,1,8,0.00
2013-7-17,91.2,76.5,63.4,77.8,70.9,63.4,100,85,55,30.18,29.98,2,0,3,0.00
2013-7-18,92.3,79.5,69.3,77.8,72.8,69.1,100,82,51,30.00,29.90,2,0,4,0.00
2013-7-19,93.4,79.5,67.4,78.2,73.1,67.4,100,83,54,29.92,29.69,3,0,12,0.00
2013-7-20,87.6,75.2,63.9,74.6,68.5,63.0,98,81,58,29.81,29.63,2,0,8,0.02
2013-7-21,82.4,70.0,58.4,69.6,63.8,58.4,100,83,51,29.98,29.81,3,0,5,0.00
2013-7-22,82.0,70.4,61.0,71.7,65.6,60.3,100,86,60,30.01,29.84,2,0,7,0.04
2013-7-23,76.8,69.3,65.0,73.0,68.2,65.0,100,96,80,29.84,29.52,4,0,8,3.11
2013-7-24,79.0,69.7,57.0,70.9,63.4,48.1,100,82,58,30.00,29.58,4,1,10,0.00
2013-7-25,72.1,61.1,49.6,62.6,54.5,47.1,95,80,54,30.10,30.00,3,0,10,0.00
2013-7-26,67.4,62.7,58.4,65.5,61.4,57.8,100,96,88,30.08,29.98,2,0,5,0.07
2013-7-27,82.4,66.6,54.8,69.2,61.2,54.8,100,85,51,30.08,29.95,2,0,6,0.00
2013-7-28,80.9,68.7,57.3,70.7,64.2,57.0,100,87,58,30.01,29.92,1,0,5,0.00
2013-7-29,83.4,71.6,63.5,70.4,65.8,60.7,100,83,51,30.05,29.93,2,0,4,0.00
2013-7-30,74.6,61.0,53.1,62.4,57.4,52.3,100,89,52,30.11,30.03,1,0,2,0.00
2013-7-31,79.9,67.0,54.1,66.5,60.0,53.3,100,81,44,30.16,30.01,1,0,2,0.00
2013-8-1,79.9,64.0,53.8,67.5,61.5,53.5,100,93,60,30.04,29.85,3,0,7,0.51
2013-8-2,79.6,68.3,62.4,68.9,63.6,57.2,100,87,48,29.85,29.78,2,0,8,0.00
2013-8-3,78.1,64.6,55.4,64.1,56.4,-99.9,100,80,48,29.86,29.76,2,-9,6,0.00
2013-8-4,76.5,61.9,49.6,62.0,55.2,49.3,100,81,46,29.92,29.79,3,0,8,0.00
2013-8-5,72.8,59.4,47.1,54.7,48.2,40.6,100,72,32,30.07,29.92,5,1,16,0.00
2013-8-6,77.7,59.6,42.9,60.1,51.1,42.1,100,77,40,30.16,30.07,2,0,5,0.00
2013-8-7,79.0,65.1,51.3,63.0,57.2,50.5,100,79,41,30.19,30.07,4,1,9,0.00
2013-8-8,82.6,72.2,65.2,71.5,67.2,61.0,99,85,66,30.08,29.96,3,0,11,0.00
2013-8-9,73.3,71.2,67.6,73.0,70.4,67.6,100,97,89,29.98,29.74,2,0,10,1.65
2013-8-10,79.2,67.3,55.4,68.8,61.7,53.1,100,84,49,30.03,29.79,2,0,9,0.01
2013-8-11,77.4,60.9,48.5,62.6,54.1,47.7,100,81,39,30.11,29.99,3,0,9,0.00
2013-8-12,79.4,64.0,50.7,64.7,57.5,50.7,100,82,49,30.05,29.90,2,0,7,0.00
2013-8-13,71.5,63.7,57.2,70.2,63.2,57.0,100,98,88,29.92,29.68,1,0,4,0.34
2013-8-14,69.9,59.9,50.5,63.9,55.7,50.0,100,87,57,29.99,29.68,3,0,11,0.01
2013-8-15,72.5,60.9,46.8,59.9,53.4,46.0,99,79,50,30.13,29.99,2,0,8,0.00
2013-8-16,76.1,59.1,46.2,62.5,53.7,45.7,100,85,46,30.21,30.12,3,0,8,0.00
2013-8-17,78.8,61.9,47.9,65.4,55.9,47.5,100,84,39,30.31,30.21,2,0,6,0.00
2013-8-18,74.2,63.1,52.8,67.6,59.9,52.5,100,90,69,30.30,30.09,1,0,3,0.00
2013-8-19,75.8,64.5,56.6,67.7,61.3,55.8,100,90,63,30.10,29.95,1,0,5,0.00
2013-8-20,82.0,66.4,55.0,67.6,60.7,54.7,100,85,45,30.11,30.00,3,0,7,0.00
2013-8-21,83.4,67.3,55.3,70.4,62.2,55.1,100,86,54,30.18,30.02,3,0,6,0.00
2013-8-22,84.7,70.2,56.2,72.2,65.5,56.2,100,86,59,30.04,29.80,2,0,8,0.01
2013-8-23,75.1,65.3,52.0,66.4,58.7,50.3,100,82,53,30.15,29.83,5,1,13,0.00
2013-8-24,74.6,58.6,43.6,59.0,51.1,43.1,100,80,44,30.35,30.16,3,0,7,0.00
2013-8-25,78.1,60.3,44.5,63.4,53.7,43.7,100,82,47,30.42,30.18,2,0,7,0.00
2013-8-26,76.7,66.5,59.2,70.1,64.6,57.2,100,94,75,30.19,29.87,1,0,8,0.16
2013-8-27,81.2,71.7,66.0,72.1,68.4,66.0,100,90,63,29.89,29.81,3,0,6,0.00
2013-8-28,83.8,70.5,65.6,72.2,68.4,63.9,100,94,61,29.98,29.83,6,0,12,0.63
2013-8-29,69.9,65.5,61.5,67.4,63.2,60.3,100,93,80,30.06,30.02,3,0,8,0.15
2013-8-30,79.4,68.1,59.9,72.3,65.1,59.3,100,91,66,30.03,29.80,2,0,6,0.00
2013-8-31,75.3,69.7,63.5,74.7,69.5,63.5,100,100,96,29.83,29.75,1,0,4,0.39
2013-9-1,79.2,70.9,65.3,74.9,70.0,65.3,100,97,77,29.85,29.78,1,0,3,0.00
2013-9-2,76.1,70.8,66.1,75.1,70.4,66.1,100,99,92,29.82,29.67,2,0,6,0.65
2013-9-3,70.4,65.2,55.9,69.1,64.4,55.7,100,97,91,29.83,29.67,1,0,3,0.00
2013-9-4,74.6,61.1,51.9,64.5,57.1,51.9,100,88,51,29.93,29.83,2,0,9,0.00
2013-9-5,66.4,57.4,44.3,58.1,50.0,35.9,100,80,33,30.19,29.87,6,1,17,0.00
2013-9-6,64.3,50.3,38.9,53.5,43.9,36.0,100,82,39,30.30,30.12,3,0,6,0.00
2013-9-7,71.6,55.9,41.1,63.8,52.0,40.8,100,88,54,30.13,29.88,2,0,7,0.02
2013-9-8,65.3,57.7,41.6,62.3,50.9,38.9,100,81,41,30.14,29.78,5,1,21,0.00
2013-9-9,64.5,50.2,35.6,55.1,45.3,34.8,100,85,53,30.28,30.13,2,0,9,0.00
2013-9-10,70.9,59.8,47.9,70.5,59.6,47.4,100,100,96,30.16,30.02,2,0,7,0.32
2013-9-11,65.6,64.8,64.5,65.6,64.8,64.5,100,100,100,30.06,30.05,0,0,1,0.00
2013-9-12,75.6,66.8,65.2,75.6,64.6,-99.9,100,98,96,29.81,29.65,1,-21,8,2.04
2013-9-13,67.6,63.6,56.0,67.6,61.7,52.2,100,94,77,29.81,29.60,4,0,9,0.02
2013-9-14,61.3,55.2,47.1,55.0,50.9,45.7,100,86,67,30.08,29.81,4,0,9,0.02
2013-9-15,64.0,53.0,44.9,58.8,50.5,44.9,100,92,64,30.20,30.06,2,0,7,0.00
2013-9-16,63.4,53.7,41.5,57.2,49.7,36.8,100,87,67,30.31,30.03,6,1,14,0.03
2013-9-17,58.3,45.5,32.4,50.0,39.6,31.4,100,82,49,30.47,30.31,4,0,9,0.03
2013-9-18,65.0,48.7,39.2,55.6,45.3,38.5,100,90,53,30.38,30.16,1,0,6,0.00
2013-9-19,69.3,53.4,44.1,61.4,50.5,44.1,100,91,53,30.20,30.05,1,0,4,0.01
2013-9-20,71.5,55.8,46.5,63.4,53.1,46.2,100,92,62,30.13,29.99,2,0,7,0.01
2013-9-21,69.3,60.4,47.3,64.1,56.9,47.3,100,89,68,30.03,29.67,5,1,14,0.01
2013-9-22,67.3,58.8,49.1,65.3,55.3,44.6,100,89,70,29.88,29.60,4,0,14,0.88
2013-9-23,56.9,48.1,38.9,46.5,41.5,37.9,99,80,54,30.06,29.88,5,1,14,0.00
2013-9-24,61.6,49.6,38.9,49.0,42.4,37.8,98,79,43,30.05,29.86,5,1,15,0.00
2013-9-25,65.5,51.1,37.9,57.1,46.7,37.4,100,86,56,30.01,29.89,5,0,12,0.00
2013-9-26,61.6,53.1,47.6,53.7,48.6,44.0,98,86,60,30.17,30.01,3,0,7,0.00
2013-9-27,62.7,53.1,45.4,55.2,50.5,44.4,99,91,68,30.32,30.17,1,0,7,0.00
2013-9-28,68.6,53.7,44.2,60.1,50.7,44.2,100,91,59,30.39,30.27,2,0,6,0.00
2013-9-29,65.5,52.4,43.3,57.7,49.9,42.2,100,92,62,30.29,30.10,1,0,5,0.00
2013-9-30,67.1,50.4,39.2,56.9,46.7,38.4,100,89,52,30.16,29.98,2,0,6,0.01
2013-10-1,71.8,54.4,43.6,61.9,51.4,43.3,100,91,58,30.04,29.87,2,0,7,0.01
2013-10-2,73.7,58.3,49.6,63.4,55.3,49.6,100,91,59,29.99,29.87,3,0,7,0.01
2013-10-3,70.9,55.3,44.2,59.6,51.3,43.9,100,88,39,30.14,29.99,1,0,5,0.00
2013-10-4,58.9,53.3,46.5,58.0,53.1,46.2,100,99,93,30.14,30.07,1,0,3,0.54
2013-10-5,62.9,58.5,55.3,61.1,58.0,55.3,100,98,86,30.14,30.08,0,0,1,0.04
2013-10-6,58.4,54.3,51.6,58.4,54.0,50.0,100,99,93,30.23,30.12,2,0,7,0.15
2013-10-7,71.8,59.4,52.2,69.3,58.6,52.2,100,97,82,30.15,29.72,5,1,15,0.73
2013-10-8,61.0,49.3,37.5,52.3,44.0,36.5,100,85,44,30.43,29.94,4,1,12,0.74
2013-10-9,60.1,43.4,34.4,48.3,39.4,34.4,100,88,44,30.54,30.40,4,0,7,0.00
2013-10-10,53.6,39.3,36.3,47.6,38.8,35.7,100,98,78,30.42,30.32,1,0,2,0.01
2013-12-17,9.0,8.7,8.4,5.4,4.3,3.5,85,82,80,30.16,30.15,3,0,0,0.00
2013-12-18,25.1,10.4,8.4,21.8,7.0,4.8,87,86,85,30.04,29.98,0,0,0,0.00
2013-12-19,25.7,23.7,22.9,22.6,21.4,20.9,92,91,88,30.11,30.06,9,2,9,0.00